Printer-friendly version

IAU Minor Planet Center

Minor Planet Center

MPEC 2006-Q63 : 2006 QU90

The following Minor Planet Electronic Circular may be linked-to from your own Web pages, but must not otherwise be redistributed electronically.


Read MPEC 2006-Q62 Read MPEC 2006-Q64


M.P.E.C. 2006-Q63                                Issued 2006 Aug. 30, 23:42 UT

     The Minor Planet Electronic Circulars contain information on unusual
         minor planets and routine data on comets.  They are published
   on behalf of Commission 20 of the International Astronomical Union by the
          Minor Planet Center, Smithsonian Astrophysical Observatory,
                          Cambridge, MA 02138, U.S.A.

                  Supported in part by the Brinson Foundation
                  Supported in part by the TABASGO Foundation
             Prepared using the Tamkin Foundation Computer Network

                              MPC@CFA.HARVARD.EDU
          URL http://cfa-www.harvard.edu/iau/mpc.html  ISSN 1523-6714

                                   2006 QU90

Observations:
     K06Q90U  C2006 08 28.25894 23 52 55.33 -04 16 08.6          18.7   EQ063704
     K06Q90U  C2006 08 28.27014 23 52 55.02 -04 16 04.2          19.1   EQ063704
     K06Q90U  C2006 08 28.28135 23 52 54.91 -04 15 57.8          19.0   EQ063704
     K06Q90U  C2006 08 28.29254 23 52 54.65 -04 15 53.3          18.6   EQ063704
     K06Q90U* C2006 08 28.33519 23 52 53.83 -04 15 33.5          19.0 V EQ063703
     K06Q90U  C2006 08 28.34323 23 52 53.65 -04 15 29.6          18.7 V EQ063703
     K06Q90U  C2006 08 28.35128 23 52 53.50 -04 15 25.7          18.9 V EQ063703
     K06Q90U  C2006 08 28.35934 23 52 53.32 -04 15 21.3          18.8 V EQ063703
     K06Q90U  C2006 08 30.29522 23 52 18.58 -03 59 51.1          18.8   EQ063704
     K06Q90U  C2006 08 30.30677 23 52 18.31 -03 59 45.4          19.1   EQ063704
     K06Q90U  C2006 08 30.31803 23 52 18.03 -03 59 40.6          19.2   EQ063704
     K06Q90U  C2006 08 30.32908 23 52 17.81 -03 59 35.2          18.9   EQ063704
     K06Q90U  C2006 08 30.34018 23 52 17.46 -03 59 29.5          19.2   EQ063704

Observer details:
703 Catalina Sky Survey.  Observer R. A. Kowalski.  Measurers E. C. Beshore,
    E. J. Christensen, G. J. Garradd, A. R. Gibbs, A. D. Grauer, R. E. Hill,
    R. A. Kowalski, S. M. Larson, R. H. McNaught.  0.68-m Schmidt + CCD.
704 Lincoln Laboratory ETS, New Mexico.  Observers M. Bezpalko, L. Manguso,
    D. Torres, R. Kracke, H. Love, G. Spitz, J. Kistler.  Measurers J. Stuart,
    J. Kommers.  1.0-m f/2.15 reflector + CCD.

Orbital elements:
2006 QU90                                                Earth MOID = 0.1751 AU
Epoch 2006 Sept. 22.0 TT = JDT 2454000.5                MPC
M 351.32472              (2000.0)            P               Q
n   0.12526564     Peri.   70.22952     +0.46532303     -0.88488394
a   3.9559252      Node   351.93992     +0.74447008     +0.40429179
e   0.7241449      Incl.    8.74942     +0.47878886     +0.23136239
P   7.87           H   17.6           G   0.15           U   9
Residuals in seconds of arc
060828 704  0.4+  0.4+    060828 703  0.2-  0.4-    060830 704  0.1-  0.3-
060828 704  0.9-  0.4-    060828 703  0.0   0.2-    060830 704  0.8+  0.3-
060828 704  0.7+  0.7+    060828 703  0.2-  0.4+    060830 704  0.3-  0.1-
060828 704  0.2+  0.0     060830 704  0.3-  0.4+
060828 703  0.0   0.5-    060830 704  0.1-  0.4+

Ephemeris:
2006 QU90                a,e,i = 3.96, 0.72, 9                   q = 1.0913
Date    TT    R. A. (2000) Decl.     Delta      r     Elong.  Phase     V
2006 08 23    23 53.79   -04 55.3    0.733    1.697   152.8    15.8    18.9
2006 09 02    23 51.26   -03 36.9    0.616    1.608   162.6    10.8    18.3
2006 09 12    23 44.91   -01 57.0    0.517    1.521   173.2     4.5    17.5
2006 09 22    23 34.66   +00 17.8    0.434    1.437   174.7     3.7    16.9
2006 10 02    23 21.35   +03 24.0    0.369    1.357   162.5    12.8    16.9
2006 10 12    23 06.90   +07 37.7    0.318    1.284   150.0    22.9    16.7
2006 10 22    22 53.92   +13 10.2    0.281    1.219   138.1    33.1    16.7
2006 11 01    22 45.44   +20 10.4    0.253    1.165   127.7    42.4    16.6
2006 11 11    22 44.17   +28 45.3    0.232    1.124   119.9    49.8    16.5
2006 11 21    22 53.46   +38 51.9    0.217    1.099   115.4    54.3    16.5
2006 12 01    23 20.37   +50 03.1    0.210    1.091   114.9    55.1    16.4
2006 12 11    00 20.76   +60 41.7    0.212    1.102   118.4    51.8    16.4
2006 12 21    02 16.14   +66 56.8    0.226    1.129   125.0    45.6    16.4
2006 12 31    04 27.30   +65 11.0    0.255    1.172   132.9    38.0    16.5
2007 01 10    05 48.44   +58 26.2    0.300    1.228   139.8    31.1    16.8
2007 01 20    06 31.64   +50 59.0    0.361    1.294   144.1    26.5    17.1
2007 01 30    06 57.90   +44 25.0    0.440    1.369   144.8    24.5    17.6
2007 02 09    07 16.88   +39 01.5    0.537    1.449   142.4    24.6    18.2
2007 02 19    07 32.70   +34 40.3    0.650    1.534   137.9    25.6    18.8
2007 03 01    07 47.29   +31 07.9    0.779    1.621   132.4    26.8    19.3
2007 03 11    08 01.44   +28 12.0    0.923    1.710   126.4    27.9    19.8
2007 03 21    08 15.46   +25 42.3    1.080    1.801   120.2    28.5    20.3
2007 03 31    08 29.54   +23 30.9    1.250    1.891   114.1    28.8    20.7
2007 04 10    08 43.65   +21 32.2    1.430    1.982   107.9    28.7    21.1
2007 04 20    08 57.77   +19 42.2    1.619    2.073   101.8    28.3    21.5
2007 04 30    09 11.90   +17 58.0    1.814    2.162    95.8    27.6    21.8

Timothy B. Spahr             (C) Copyright 2006 MPC           M.P.E.C. 2006-Q63

Read MPEC 2006-Q62 Read MPEC 2006-Q64


Our Web policy. Index to the CBAT/MPC/ICQ pages.


Valid HTML 4.01!